Simultaneous Nadir Overpasses (SNOs) Predictions

Prediction of SNOs between GOES-16 and LANDSAT-8 Satellite Orbit:

Table of predicted SNOs for the next 14.0 days since TLE Epoch: 5/21/2022
Index Date Time (GOES-16) GOES-16 Lat,Lon LANDSAT-8 Lat,Lon Distance(km) Time Diff (sec)
1 05/22/2022 02:57:22 -0.05, -75.19 0.72, -71.72 395.00 80
2 05/22/2022 15:18:37 0.04, -75.21 0.40, -76.87 188.82 80
3 05/24/2022 15:09:06 0.04, -75.22 -0.27, -73.92 149.17 80
4 05/25/2022 03:30:30 -0.04, -75.21 -0.84, -79.11 442.80 80
5 05/26/2022 14:56:54 0.04, -75.24 -0.90, -70.96 488.04 80
6 05/27/2022 03:18:18 -0.04, -75.23 -0.21, -76.14 103.74 80
7 05/29/2022 03:03:25 -0.03, -75.25 0.38, -73.17 235.93 80
8 05/29/2022 15:24:40 0.03, -75.28 0.67, -78.34 347.39 80
9 05/31/2022 15:12:27 0.03, -75.31 0.06, -75.37 7.78 80
10 06/02/2022 15:02:56 0.02, -75.34 -0.62, -72.41 333.25 80
11 06/03/2022 03:24:18 -0.02, -75.33 -0.52, -77.59 257.84 80
